Temperature
30 30 30 31 32 32 31 31 30 31 32 31 30 30 29 28 27 25 24 23 21 20 19 19 19 18 18 18 18 18 18 17 18 17 17 17 17 17 17 16 16 16 16 16
30 30 31 32 32 32 31 31 31 31 32 31 30 29 28 28 27 26 24 23 21 20 19 18 18 18 18 17 17 17 17 18 17 17 17 17 17 17 17 17 16 16 15 15
30 31 33 32 32 31 31 31 31 31 31 31 29 28 27 27 27 26 24 23 22 21 19 18 18 17 17 17 17 17 17 17 17 17 17 17 17 17 17 17 16 16 15 15
31 32 32 32 32 32 31 32 31 31 30 28 28 26 26 27 27 26 25 24 23 21 20 19 18 18 17 17 17 17 17 17 17 17 17 17 17 17 17 16 16 16 15 15
31 32 32 31 32 32 32 32 31 30 27 25 25 25 26 27 27 26 26 25 23 22 20 19 18 18 17 17 17 17 17 17 17 17 17 17 17 17 17 17 16 16 16 15
31 33 33 32 33 33 32 31 30 28 25 22 23 25 26 27 28 27 27 25 23 22 21 19 19 18 18 17 17 17 17 17 17 17 17 17 17 17 17 16 16 16 16 16
30 31 32 33 32 32 31 29 28 26 24 23 23 25 26 28 29 28 27 25 24 22 21 20 19 18 18 17 17 17 17 17 17 17 17 17 17 17 17 17 16 16 16 16
29 30 31 32 31 31 31 30 28 26 26 26 25 25 27 28 29 28 27 26 24 23 22 20 19 18 18 17 17 17 17 17 17 17 17 17 17 17 17 17 17 17 17 17
30 30 32 32 32 32 31 30 31 29 28 28 25 24 24 27 28 28 27 26 25 24 22 21 20 19 18 18 18 18 17 18 18 18 18 17 18 17 17 17 17 17 17 17
31 30 31 32 32 32 32 31 30 29 27 26 25 23 23 23 26 28 28 27 25 24 23 22 21 20 19 19 18 18 18 18 18 18 18 18 18 18 17 17 17 17 17 17
32 30 30 31 30 29 30 30 29 29 28 27 25 24 25 24 26 27 28 27 26 25 24 23 22 21 20 19 19 18 18 18 18 18 18 18 18 18 18 18 17 17 17 17
32 31 30 30 31 30 29 29 29 28 27 27 27 25 27 26 27 28 28 27 26 26 25 24 23 22 21 20 20 19 19 18 18 18 18 18 18 18 18 18 18 18 17 17
31 30 28 29 28 27 27 28 29 29 28 27 27 26 26 26 26 27 27 27 26 26 25 24 23 22 22 21 20 20 19 19 19 19 18 18 18 18 18 18 18 18 18 18
30 29 28 28 26 24 24 26 28 29 28 27 27 26 26 25 25 26 26 26 26 25 25 24 24 23 22 22 21 21 20 20 19 19 19 18 18 18 18 18 18 18 18 18
29 29 29 29 28 27 26 26 28 28 29 28 28 27 26 25 25 25 25 25 25 25 24 24 23 23 22 22 22 21 21 20 20 20 19 19 19 18 18 18 18 18 18 18
27 28 29 29 29 29 28 28 29 29 29 29 29 27 26 25 25 25 25 24 24 24 23 23 23 22 22 22 21 21 21 21 20 20 19 19 18 18 18 18 17 17 17 17
25 26 27 27 29 29 28 29 29 29 30 29 28 27 26 24 24 24 23 23 23 22 22 21 21 21 21 21 21 20 20 20 20 19 19 19 18 18 17 17 17 17 17 17
22 22 25 26 27 25 28 30 30 29 29 29 27 26 25 23 22 21 21 21 21 20 20 20 19 19 19 19 19 19 19 19 19 19 18 18 18 17 17 17 17 16 16 16
22 22 23 25 26 26 27 27 27 27 27 27 26 25 23 21 21 20 20 19 19 18 18 18 18 17 18 18 18 18 18 17 17 17 16 17 17 17 16 16 16 16 16 15
22 22 23 24 25 24 25 25 25 25 24 26 25 24 23 22 21 20 18 18 17 17 16 16 16 16 16 16 16 16 16 16 16 15 15 15 15 15 15 15 15 15 15 15
22 23 24 25 25 24 24 23 24 23 23 25 25 24 23 23 21 18 17 17 16 16 15 15 15 15 15 15 15 15 15 15 14 14 14 14 14 14 14 14 14 14 14 14
20 22 23 24 24 22 22 22 22 22 23 24 24 22 21 19 18 17 17 16 15 15 15 15 15 14 14 14 14 14 14 13 13 13 13 13 13 13 13 13 12 12 13 13
17 18 20 21 21 20 20 20 20 21 22 23 22 21 19 18 17 16 16 15 15 15 14 14 14 13 13 13 13 13 12 12 12 12 12 12 12 12 12 12 12 12 12 12
17 17 18 19 19 19 20 20 20 21 22 22 21 20 19 18 17 16 15 15 14 14 14 13 13 13 12 12 12 11 11 11 11 11 11 11 11 11 12 12 11 11 11 11
18 19 19 19 19 19 19 20 20 21 21 21 20 19 18 17 16 15 15 14 14 14 13 13 12 12 12 11 11 11 11 11 11 11 11 11 11 11 11 11 11 11 11 10
20 20 20 19 19 19 19 20 20 20 20 19 19 18 17 16 16 15 14 14 14 13 13 13 12 12 12 11 11 11 11 10 10 10 10 10 11 11 11 11 11 11 11 10
Wind_Speed
16 15 15 14 11 11 13 14 13 11 6 7 8 5 4 7 6 7 7 8 8 8 9 9 10 11 11 11 11 11 12 10 8 7 6 6 5 4 5 6 7 5 5 4
17 19 19 15 11 12 14 15 13 10 8 8 8 3 3 6 7 7 9 9 10 10 11 12 11 11 12 11 11 11 12 11 8 6 5 4 5 4 5 5 6 5 4 3
20 17 14 11 12 14 14 13 13 13 13 9 8 3 4 6 7 8 8 9 10 12 13 13 13 12 11 12 12 12 12 11 9 8 5 5 3 2 5 6 5 4 4 4
20 19 16 13 13 14 14 12 14 15 14 9 7 3 4 7 8 9 9 10 11 12 14 14 14 13 13 13 12 12 11 10 8 8 7 8 6 5 6 5 6 5 4 5
20 19 16 15 13 13 14 14 15 14 10 9 8 5 5 7 8 9 9 11 11 12 13 14 14 13 13 13 12 12 11 10 9 8 7 7 5 4 5 5 8 6 5 4
23 20 17 15 13 13 13 14 15 8 3 3 11 8 2 3 6 10 10 11 11 12 13 13 13 12 11 12 11 12 12 11 10 8 8 7 5 4 5 6 8 5 5 5
23 22 20 17 17 13 11 11 10 7 2 4 9 6 3 5 6 9 12 13 12 12 13 14 14 14 13 13 13 13 13 12 11 9 8 8 6 5 5 5 6 6 5 6
20 17 16 16 16 14 11 12 10 10 10 5 1 2 2 6 7 10 13 13 13 13 14 14 14 14 14 14 14 14 14 12 11 10 8 7 7 5 5 6 5 6 4 5
19 16 13 12 13 13 11 11 11 11 14 8 1 1 3 5 4 9 13 14 13 13 14 15 15 15 15 15 14 14 14 12 12 11 9 8 7 7 5 6 6 5 4 4
22 18 15 10 9 12 12 10 9 8 8 8 1 1 2 4 5 6 11 13 13 13 14 15 15 15 15 15 14 14 14 12 11 11 10 10 9 8 7 6 7 6 5 4
22 20 17 13 10 11 9 10 8 7 8 8 5 1 6 9 7 7 10 12 14 14 15 15 15 15 15 15 15 13 13 12 12 11 10 9 10 10 9 8 7 6 6 6
19 16 15 14 9 7 10 11 9 8 7 8 7 2 2 2 2 4 8 10 10 11 14 15 15 15 15 16 16 14 13 13 12 11 11 10 9 10 10 10 9 8 7 7
12 11 14 15 7 3 7 10 10 9 8 8 7 1 4 2 3 3 5 7 9 9 11 13 14 14 14 14 14 15 15 14 14 13 12 11 10 10 9 9 9 9 9 8
9 11 14 14 5 5 7 15 13 10 9 6 5 1 4 6 6 3 3 5 7 8 9 10 11 10 10 10 11 12 13 13 13 12 11 11 10 10 9 9 8 9 9 9
11 15 16 15 10 10 13 16 15 12 11 8 4 3 7 8 7 5 4 4 6 6 6 7 9 9 9 8 8 8 9 8 9 9 9 9 9 9 8 8 8 8 9 11
10 13 15 16 15 14 14 15 14 12 10 9 5 4 11 10 7 6 6 6 6 6 6 6 7 8 8 7 7 6 5 5 6 6 6 6 6 5 6 6 6 7 7 8
8 10 14 15 14 13 14 12 11 9 8 6 2 7 12 10 8 7 7 7 7 7 7 8 7 7 7 6 6 6 5 5 5 4 3 3 3 2 1 2 2 3 4 5
8 10 10 13 11 14 9 6 6 6 4 2 7 11 13 13 11 10 10 11 11 11 11 11 10 10 9 9 8 8 8 8 8 7 5 5 5 5 4 3 3 2 2 2
9 9 9 10 13 11 7 2 2 2 1 4 9 14 15 15 14 12 12 12 13 13 13 13 13 13 13 12 11 12 12 12 12 12 10 10 8 7 6 5 4 3 3 3
11 11 12 11 10 7 3 3 6 3 1 4 10 13 17 14 8 9 12 13 14 14 14 14 15 16 15 13 12 13 13 13 12 11 10 9 9 8 7 6 5 4 4 4
13 13 15 13 8 2 3 4 3 2 3 5 8 10 12 9 10 14 15 15 15 15 15 15 15 14 13 12 13 13 13 12 11 10 10 9 7 6 6 6 5 4 4 4
4 5 8 10 9 2 6 5 2 2 3 6 10 13 16 19 20 18 17 16 15 15 15 14 14 13 12 11 11 12 11 9 8 8 7 6 6 6 6 5 4 4 4 4
4 4 2 1 2 5 7 7 4 3 3 8 13 18 21 21 20 19 17 15 15 14 13 13 13 12 11 10 10 11 9 7 7 6 5 4 4 3 3 4 4 4 3 4
2 4 1 2 4 4 5 6 4 1 4 8 13 18 20 20 19 18 16 14 13 13 12 11 11 11 9 9 8 8 6 6 5 5 4 3 2 2 2 3 4 4 4 4
1 1 1 4 4 5 6 3 2 5 8 10 14 17 18 19 18 17 14 13 12 11 10 9 9 8 8 7 6 7 6 6 6 6 5 5 4 3 2 3 3 2 1 1
4 4 4 4 4 4 5 4 7 10 12 14 17 18 17 18 18 16 14 12 12 11 9 8 8 7 7 7 6 6 6 6 6 6 7 7 6 4 4 4 4 3 4 5
Wind_Direction
245 245 256 267 273 293 305 307 312 308 295 288 286 267 175 165 176 170 172 175 173 167 162 155 154 155 150 144 146 147 144 145 147 144 148 142 148 154 132 124 121 113 91 81
252 250 257 272 289 292 292 298 302 301 297 290 292 280 162 164 176 173 172 174 173 165 163 164 163 161 155 151 150 152 151 154 159 153 151 149 146 161 129 110 124 131 126 137
244 254 258 267 283 289 293 299 308 310 307 301 298 262 182 181 176 164 167 167 168 169 169 169 167 164 160 157 159 164 160 157 161 152 151 142 134 160 135 137 150 148 139 105
252 261 265 270 276 286 295 307 313 311 309 312 301 274 201 183 179 167 169 166 168 167 165 167 167 169 167 165 161 154 155 158 158 159 165 170 178 179 159 155 147 151 165 157
254 257 261 264 271 284 298 310 307 314 325 331 307 278 188 179 173 169 166 164 162 164 166 167 169 169 168 164 160 154 159 165 163 174 178 191 187 171 150 144 139 160 169 183
264 268 269 268 274 282 294 300 297 308 329 305 274 264 166 168 163 157 157 155 155 158 160 162 164 161 162 160 161 163 165 168 171 182 180 198 203 178 155 158 155 181 173 184
255 261 264 265 269 273 279 287 296 303 289 231 259 269 140 129 122 138 146 148 151 155 156 160 164 165 167 168 170 169 168 172 178 185 185 194 199 191 179 185 177 199 189 182
249 250 251 250 252 264 270 276 289 305 304 292 209 323 84 99 106 126 136 140 151 157 160 165 168 167 170 174 174 172 173 176 181 186 189 193 193 201 198 206 211 203 229 185
254 258 256 248 246 252 268 276 291 288 291 301 87 79 15 11 120 131 136 143 154 159 160 166 168 170 172 175 177 176 175 178 184 188 187 194 199 217 216 196 213 213 204 177
249 264 266 248 245 254 257 278 295 297 306 310 8 84 162 246 233 164 148 151 154 159 161 163 168 173 175 178 178 177 175 179 184 188 190 197 201 211 217 216 210 213 200 199
239 253 262 259 243 258 261 260 267 289 296 306 313 143 187 202 208 182 158 153 158 164 164 164 169 173 175 177 177 179 177 180 187 193 196 205 196 204 209 216 219 211 202 192
234 242 257 259 253 269 263 259 255 257 279 290 302 112 131 186 156 163 146 143 151 162 162 165 167 169 174 177 178 181 183 187 191 194 196 205 203 200 205 210 210 208 205 202
243 238 248 251 244 308 287 277 263 258 260 278 301 122 134 107 89 100 122 138 149 162 161 164 165 170 176 177 179 182 188 192 194 195 197 200 204 206 209 211 205 203 203 206
256 238 245 258 231 168 253 273 272 257 255 263 284 150 149 125 118 105 119 143 157 161 157 159 158 162 170 172 173 177 187 191 192 192 195 199 202 206 208 211 208 206 204 206
253 239 239 252 221 192 218 237 246 248 253 261 257 154 133 122 129 136 133 128 130 141 155 152 151 153 160 163 164 170 175 179 184 182 191 199 203 204 206 211 211 209 209 214
260 247 246 251 245 218 222 228 236 243 247 251 250 123 112 106 112 112 103 101 113 126 138 131 137 140 145 148 151 160 161 163 163 172 180 183 190 195 204 210 214 214 214 220
278 257 245 250 253 253 238 233 237 236 241 244 235 124 122 112 103 95 96 91 85 90 88 88 88 103 110 115 123 129 123 112 107 104 98 105 122 127 200 222 209 225 231 234
258 261 248 244 245 247 252 254 256 240 211 156 128 124 120 113 99 82 79 87 81 73 76 82 83 80 83 82 82 82 81 76 77 73 68 71 77 73 62 54 51 43 18 317
241 243 244 242 236 240 253 278 301 282 153 128 126 124 120 120 111 88 79 81 85 82 77 75 75 74 72 71 72 75 70 67 64 58 51 48 49 58 56 48 37 32 16 342
225 230 236 235 234 233 234 37 19 20 90 107 131 139 142 147 131 115 101 92 89 84 81 79 76 74 69 65 69 75 70 66 60 56 50 45 46 46 43 40 34 21 4 343
215 218 225 228 226 193 45 65 35 227 162 120 119 132 150 147 121 123 112 102 96 91 87 84 80 76 72 69 70 71 68 64 60 57 53 44 39 51 47 30 16 358 349 338
276 236 234 238 227 159 34 65 51 76 91 114 114 118 115 112 117 119 116 111 105 99 94 89 84 79 73 72 74 71 64 60 57 55 51 39 27 25 38 17 350 336 330 316
352 341 324 357 82 77 63 66 32 20 96 108 114 119 122 124 126 124 120 114 108 102 97 92 90 84 75 68 68 70 62 55 52 45 39 27 18 12 7 347 331 332 342 348
345 334 349 88 84 71 71 78 43 16 90 102 118 124 127 126 126 124 119 114 108 103 100 99 95 90 83 76 72 71 59 46 38 24 7 338 311 299 355 334 326 347 356 7
280 321 109 89 80 66 47 43 83 83 85 99 112 117 122 123 123 120 117 114 110 105 100 98 97 95 92 87 79 70 57 36 19 358 341 324 317 325 322 293 290 294 292 256
52 40 42 71 73 99 94 78 90 96 96 100 106 109 114 118 119 118 114 109 106 103 99 96 94 91 87 80 72 64 53 34 11 351 344 336 332 341 326 315 316 279 260 227
Height
1490 1491 1487 1479 1473 1472 1471 1472 1474 1469 1460 1463 1465 1467 1470 1474 1478 1482 1486 1490 1493 1496 1498 1501 1504 1508 1511 1514 1519 1523 1527 1532 1536 1539 1543 1546 1549 1551 1552 1552 1552 1553 1554 1555
1489 1485 1476 1470 1468 1468 1469 1473 1470 1464 1456 1459 1463 1466 1468 1471 1475 1479 1484 1487 1490 1494 1498 1500 1503 1507 1510 1513 1517 1521 1526 1530 1534 1539 1542 1545 1548 1550 1551 1552 1552 1553 1554 1555
1485 1476 1468 1468 1469 1470 1469 1469 1467 1465 1457 1456 1464 1472 1470 1471 1473 1477 1481 1484 1488 1492 1496 1500 1503 1506 1509 1512 1516 1520 1525 1529 1533 1537 1541 1545 1547 1549 1551 1551 1552 1553 1554 1554
1475 1467 1465 1467 1468 1467 1470 1460 1460 1461 1466 1474 1473 1487 1477 1469 1470 1473 1478 1482 1486 1490 1494 1498 1501 1505 1508 1511 1515 1519 1523 1528 1532 1536 1540 1543 1546 1548 1550 1550 1551 1552 1554 1554
1472 1465 1465 1467 1464 1462 1463 1457 1459 1463 1473 1484 1484 1486 1478 1466 1470 1471 1474 1479 1483 1488 1492 1496 1500 1503 1507 1511 1515 1518 1523 1527 1531 1535 1539 1542 1545 1547 1549 1550 1551 1552 1553 1554
1466 1461 1459 1459 1457 1457 1456 1459 1460 1466 1480 1507 1493 1487 1480 1466 1463 1466 1470 1476 1482 1487 1491 1495 1499 1503 1506 1510 1514 1518 1522 1526 1530 1534 1538 1541 1544 1546 1548 1549 1550 1551 1552 1553
1471 1462 1457 1456 1459 1458 1459 1471 1483 1488 1497 1502 1486 1482 1474 1458 1456 1461 1467 1474 1481 1486 1490 1494 1498 1502 1505 1509 1513 1517 1521 1525 1529 1532 1536 1539 1542 1544 1546 1548 1549 1550 1552 1552
1474 1471 1456 1453 1457 1460 1459 1465 1483 1496 1493 1485 1481 1486 1468 1457 1458 1461 1467 1473 1479 1484 1489 1493 1497 1500 1504 1508 1512 1516 1520 1523 1527 1531 1534 1537 1540 1543 1545 1546 1548 1549 1551 1552
1466 1465 1449 1447 1448 1451 1458 1459 1455 1468 1468 1475 1485 1484 1476 1462 1461 1463 1467 1473 1478 1483 1487 1492 1496 1500 1503 1507 1511 1515 1518 1522 1526 1529 1532 1535 1538 1541 1543 1545 1546 1548 1550 1551
1454 1461 1449 1445 1446 1447 1449 1452 1458 1468 1482 1487 1486 1491 1488 1478 1470 1464 1466 1471 1476 1481 1486 1490 1495 1499 1502 1506 1510 1514 1517 1520 1524 1527 1530 1533 1536 1539 1541 1543 1544 1546 1547 1549
1444 1456 1453 1447 1453 1457 1454 1457 1459 1462 1465 1482 1491 1492 1471 1471 1466 1463 1464 1468 1474 1479 1483 1488 1493 1497 1501 1505 1509 1512 1516 1519 1522 1525 1528 1531 1533 1536 1538 1539 1541 1543 1544 1546
1437 1446 1454 1449 1444 1445 1450 1454 1457 1471 1473 1469 1474 1482 1462 1462 1462 1461 1463 1467 1473 1477 1481 1486 1490 1495 1499 1503 1507 1510 1514 1517 1520 1523 1526 1529 1531 1533 1535 1536 1538 1539 1541 1542
1436 1445 1460 1459 1457 1456 1458 1453 1452 1454 1461 1467 1476 1479 1462 1461 1462 1463 1464 1468 1472 1476 1480 1484 1488 1493 1496 1501 1504 1508 1511 1515 1518 1520 1523 1525 1528 1530 1532 1533 1535 1536 1537 1539
1435 1442 1453 1462 1463 1466 1471 1462 1453 1454 1461 1466 1468 1469 1464 1464 1465 1466 1468 1470 1472 1475 1478 1482 1486 1490 1495 1498 1502 1505 1509 1512 1515 1518 1520 1522 1525 1527 1529 1530 1532 1533 1534 1535
1436 1441 1441 1441 1444 1451 1457 1457 1452 1452 1451 1456 1457 1459 1461 1463 1465 1468 1469 1470 1472 1475 1478 1481 1484 1488 1492 1496 1499 1503 1506 1509 1512 1514 1517 1518 1521 1523 1525 1527 1528 1529 1530 1532
1437 1439 1439 1442 1437 1440 1447 1445 1444 1444 1443 1445 1447 1456 1457 1463 1466 1469 1470 1471 1473 1475 1478 1480 1483 1486 1490 1493 1497 1500 1503 1506 1509 1511 1513 1515 1517 1519 1521 1523 1525 1525 1526 1528
1442 1444 1446 1447 1437 1437 1446 1437 1436 1438 1436 1440 1449 1453 1457 1463 1467 1470 1472 1473 1475 1477 1479 1481 1483 1486 1489 1492 1495 1497 1500 1504 1506 1509 1511 1513 1515 1516 1518 1520 1521 1522 1522 1524
1449 1453 1449 1446 1446 1461 1440 1427 1428 1432 1435 1438 1444 1450 1457 1465 1470 1474 1475 1476 1478 1480 1482 1484 1486 1487 1489 1491 1494 1496 1498 1501 1503 1506 1508 1510 1511 1513 1514 1516 1517 1518 1519 1520
1441 1449 1451 1447 1449 1447 1437 1432 1435 1439 1442 1440 1444 1452 1459 1465 1470 1476 1479 1481 1482 1484 1485 1487 1488 1489 1490 1492 1494 1496 1497 1499 1501 1504 1506 1507 1510 1510 1512 1513 1514 1515 1515 1516
1438 1442 1447 1446 1451 1458 1447 1439 1438 1442 1451 1445 1446 1452 1458 1465 1470 1480 1482 1484 1486 1487 1488 1490 1491 1492 1493 1495 1497 1497 1500 1501 1503 1505 1507 1508 1509 1510 1510 1511 1512 1512 1512 1513
1439 1441 1439 1440 1445 1446 1444 1443 1444 1458 1457 1447 1447 1452 1457 1462 1470 1479 1483 1487 1489 1490 1492 1493 1494 1496 1498 1500 1500 1501 1503 1504 1506 1507 1508 1510 1510 1510 1510 1510 1510 1511 1510 1510
1446 1443 1441 1438 1445 1456 1448 1445 1452 1454 1449 1449 1450 1455 1460 1466 1473 1479 1485 1489 1492 1494 1496 1497 1498 1500 1502 1503 1504 1504 1505 1506 1508 1509 1509 1510 1510 1510 1510 1510 1510 1510 1509 1509
1455 1453 1450 1448 1452 1451 1450 1452 1453 1452 1451 1451 1454 1459 1463 1469 1476 1482 1487 1491 1494 1497 1499 1501 1503 1504 1506 1507 1508 1508 1509 1509 1509 1510 1510 1510 1510 1510 1511 1511 1510 1510 1509 1509
1456 1453 1452 1452 1451 1452 1452 1452 1455 1455 1455 1455 1458 1462 1467 1472 1479 1484 1489 1493 1497 1500 1503 1505 1506 1508 1509 1510 1511 1511 1512 1511 1512 1512 1512 1512 1512 1512 1511 1511 1510 1509 1508 1507
1455 1452 1450 1451 1452 1453 1455 1456 1456 1457 1458 1460 1462 1466 1470 1475 1482 1487 1492 1496 1500 1503 1506 1508 1510 1511 1512 1513 1514 1514 1514 1514 1514 1514 1514 1513 1513 1512 1511 1510 1509 1508 1507 1506
1452 1453 1453 1455 1456 1457 1458 1458 1458 1460 1463 1464 1467 1471 1476 1480 1485 1490 1495 1499 1503 1506 1508 1511 1512 1514 1515 1515 1516 1516 1516 1516 1515 1515 1514 1514 1513 1511 1510 1509 1508 1506 1505 1503